sat.trackr.live / text

‹ back to catalog

TRANSPORTER-12 OBJECT AZ

NORAD 62656 · 2025-009AZ

PAYLOAD ACTIVE UNKNOWN

§ Identity

Operator
Country
TBD
Launch date
2025-01-14
Launch site
AFWTR
Launch vehicle
Mass (kg)
RCS (m²)

External: N2YO · Heavens-Above · Gunter

§ Orbital elements

Epoch: 2026-09-22T17:14:10.811616Z

Period
93.80 min
Inclination
97.3893°
Eccentricity
0.0001373
Mean motion
15.35156321 rev/d
Perigee alt
459.5 km
Apogee alt
461.4 km
Semi-major
6,838.6 km
B*
2.9283e-4
RAAN
348.9168°
Arg perigee
37.3246°
Mean anomaly
322.8093°
Rev number
9,397

§ Raw data

TRANSPORTER-12 OBJECT AZ1 62656U 25009AZ  26265.71818069  .00009914  00000+0  29283-3 0  99912 62656  97.3893 348.9168 0001373  37.3246 322.8093 15.35156321 93971

JSON: /api/v1/satellites/62656 · /tle

For live sub-satellite position, see the globe view (requires WebGL).

§ Visibility from observer

Set your observer location to see the next 7 days of passes ≥ 10°. The values pass through the URL so the page stays shareable.

No JS? Fill the form by hand. The geolocation button needs JavaScript.